Terminal Aerodrome Forecast
Issued by NWS Corpus Christi, TX

Home | Current Version | Previous Version | Text Only | Print | Product List | Glossary On
Versions: 1 2 3 4 5 6 7 8 9 10 11 12 13 14 15 16
000
FTUS44 KCRP 250531
TAFCRP
TAF
KCRP 250531Z 2506/2606 18012KT P6SM SCT015 WS020/19045KT
     FM250900 20006KT 5SM BR SCT005 BKN012
      TEMPO 2510/2513 2SM BR BKN005
     FM251400 21009KT P6SM BKN008 OVC018
     FM251700 36009KT P6SM BKN025
     FM252000 07009KT P6SM SCT035
     FM260100 12008KT P6SM SKC=

USA.gov is the U.S. government's official web portal to all federal, state and local government web resources and services.